Dewpoint
38 38 38 38 37 36 36 36 36 36 36 36 37 37 39 39 39 39 39 39 39 38 38 37 36 35 34 35 35 35 34 33 33 32 32 32 32 33 34 34 34 34 34 34 35 35 35 35 35 35 35 36 36 36 36 36 36 36 36 36 37 37 37 37 38 38 38 38 38 38 38 38 38 38 38 38 38 38 38 39 39 39 40 40 40 40
37 37 37 37 36 36 36 36 36 36 36 36 36 37 38 38 38 38 38 38 38 36 36 35 33 31 29 31 32 33 32 32 32 32 32 32 32 33 33 33 33 33 33 34 34 34 34 34 35 35 35 35 35 36 36 36 36 36 36 36 36 36 36 37 37 37 37 37 37 37 37 37 37 37 37 37 37 37 38 38 38 39 39 39 39 40
36 36 36 36 36 36 36 36 36 36 36 36 36 37 37 36 37 37 37 37 36 35 34 32 31 29 27 28 31 32 32 32 31 31 31 32 32 32 32 32 32 32 32 33 33 33 34 34 34 34 35 35 35 35 35 35 35 35 35 35 36 36 36 36 36 36 36 36 36 36 36 36 36 36 36 37 37 37 38 38 38 39 39 39 39 40
36 36 36 36 36 36 36 36 36 37 37 37 37 37 36 36 36 36 37 36 35 33 32 31 29 28 27 27 29 31 32 32 31 31 31 31 31 31 31 31 31 31 31 32 32 33 33 33 34 34 34 34 34 34 34 34 34 35 35 35 35 35 36 36 36 36 36 36 36 36 36 36 36 36 36 37 37 37 37 38 38 38 39 39 39 40
36 36 36 36 36 36 36 36 36 37 37 37 37 36 36 36 36 36 36 34 33 32 31 30 29 27 27 26 28 30 32 31 31 31 31 31 31 30 30 30 30 31 31 31 32 32 33 33 33 33 33 34 34 34 34 34 34 34 34 35 35 35 35 35 35 36 36 36 36 36 36 36 36 36 36 36 37 37 37 37 37 38 38 38 39 39
36 36 36 36 36 36 36 36 37 37 37 36 36 36 36 36 36 36 35 34 33 32 32 31 29 27 26 26 27 30 31 31 31 31 31 30 29 29 29 29 30 30 31 31 32 32 33 33 33 33 33 33 33 34 34 34 34 34 34 34 34 34 34 34 34 34 35 35 35 35 36 36 36 36 36 36 36 36 37 37 37 37 37 38 38 38
35 36 36 36 36 36 36 36 36 36 36 36 35 35 35 35 35 35 35 35 34 33 32 31 29 27 26 26 28 30 31 31 31 31 30 29 29 29 29 29 30 30 31 31 32 32 32 33 33 33 33 33 33 33 33 33 33 33 33 33 33 33 33 33 33 34 34 34 34 34 35 35 35 35 35 36 36 36 36 36 36 37 37 37 38 38
34 35 35 35 35 35 35 36 36 36 36 35 34 34 34 35 34 34 33 33 32 31 30 29 27 26 24 23 25 27 27 28 28 29 30 30 30 30 30 30 30 31 31 31 32 32 32 32 32 32 32 32 32 32 32 32 32 32 32 32 32 32 32 33 33 33 33 34 34 34 34 34 34 35 35 35 35 35 36 36 36 37 37 37 38 38
33 34 34 34 34 34 34 34 35 36 35 35 34 33 33 32 32 32 31 30 29 27 27 26 25 24 22 20 20 22 27 28 29 28 27 27 28 29 30 30 30 31 31 31 31 31 31 31 31 31 31 31 31 31 31 31 31 31 31 31 31 32 32 32 32 33 33 33 33 34 34 34 34 34 34 34 35 35 35 35 36 36 37 37 38 38
33 33 33 33 33 33 33 33 33 34 34 34 34 32 31 31 30 29 28 27 26 25 24 23 23 22 21 20 19 21 26 30 31 30 27 27 27 27 29 29 30 30 31 31 31 31 31 31 31 31 31 31 31 31 31 31 31 31 31 31 31 31 31 32 32 32 32 33 33 33 33 34 34 34 34 34 34 34 35 35 35 36 36 37 37 38
32 32 32 32 32 33 32 32 31 31 31 31 31 31 29 28 27 27 26 24 23 22 22 22 22 21 20 19 20 22 24 24 25 26 27 27 28 28 29 29 29 30 30 30 30 30 31 31 31 31 31 31 31 31 31 31 31 31 31 31 31 31 31 31 31 32 32 32 33 33 33 34 34 34 34 34 34 34 35 35 35 35 36 36 37 37
31 31 31 31 31 31 30 30 29 28 27 28 28 28 27 26 25 24 23 22 22 22 22 21 21 20 20 19 20 22 22 21 21 22 22 24 26 27 27 27 27 28 28 30 30 30 30 30 30 30 30 30 30 30 30 30 30 31 31 31 31 31 31 31 31 32 32 33 33 33 33 34 34 34 34 34 34 34 35 35 35 35 36 36 36 37
31 31 30 30 29 29 28 27 27 26 25 25 25 25 24 23 23 23 22 22 22 22 21 20 19 20 20 20 21 21 21 20 21 21 22 22 22 23 23 23 23 24 24 25 26 27 29 30 30 30 30 30 30 30 30 30 30 31 31 31 31 31 31 31 32 32 33 33 33 33 34 34 34 34 34 34 34 35 35 35 35 35 36 36 36 37
30 29 29 28 28 27 27 26 25 24 24 23 23 23 23 22 22 22 22 21 21 21 20 19 19 19 19 20 21 22 21 21 21 22 22 22 22 22 22 22 22 22 23 22 23 24 28 29 29 29 30 30 30 30 31 31 31 31 31 31 31 31 31 32 32 32 33 33 33 33 33 33 34 34 34 34 35 35 35 35 35 36 36 36 36 37
28 28 27 27 27 26 26 24 24 23 23 22 22 22 23 22 22 21 20 20 19 19 19 18 18 18 18 19 20 22 22 22 21 21 21 22 22 21 21 22 23 23 23 23 22 24 27 27 26 26 27 28 29 30 31 31 31 31 31 31 31 31 31 32 32 32 32 33 33 33 33 33 34 34 34 35 35 35 35 36 36 36 36 36 36 37
27 27 26 25 25 24 24 23 22 22 22 22 22 22 21 21 20 20 19 19 19 19 18 18 18 18 18 19 21 22 23 22 22 21 21 22 22 22 21 22 23 23 23 23 22 23 23 23 24 24 25 27 29 30 30 31 31 31 31 31 31 31 31 32 32 32 32 33 33 33 33 34 34 34 34 35 35 35 35 36 36 36 36 36 36 37
26 26 25 24 24 23 23 22 22 22 21 22 22 21 21 20 20 19 19 19 19 18 18 18 18 17 17 18 20 22 23 22 22 22 22 22 23 23 22 22 23 23 23 23 22 22 22 22 23 23 24 27 29 30 30 30 30 31 31 31 31 31 31 32 32 32 33 33 33 33 33 34 34 34 34 34 35 35 35 35 35 36 36 36 36 36
24 24 23 23 22 22 22 22 22 21 21 21 21 21 21 20 20 19 19 19 19 18 18 18 18 18 17 17 18 19 22 22 22 22 22 23 23 23 23 22 22 22 22 22 22 22 22 22 22 23 25 28 30 30 30 30 30 30 30 31 31 31 31 32 32 32 33 33 33 33 33 33 34 34 34 34 34 34 35 35 35 35 36 36 36 36
22 22 22 22 22 22 22 22 22 21 21 20 20 20 20 20 19 18 18 18 18 18 18 18 18 18 18 18 18 19 21 23 23 23 22 23 23 23 23 22 22 22 22 22 22 22 22 22 24 27 29 30 30 30 29 29 30 30 30 30 31 31 31 32 32 32 33 33 33 33 33 33 33 34 34 34 34 35 35 35 36 36 36 36 36 36
22 22 22 22 21 20 20 22 22 22 22 22 21 20 19 18 18 18 18 18 18 18 18 18 18 18 18 18 18 20 22 23 23 23 22 22 23 22 21 22 22 22 21 22 22 22 22 22 23 25 28 29 29 29 29 29 29 30 30 30 31 31 31 32 32 32 32 33 33 33 33 33 33 33 34 34 34 35 35 35 35 36 36 36 36 36
22 22 22 22 22 21 21 22 22 23 25 23 21 19 19 18 18 19 18 18 18 18 18 18 19 19 19 20 22 23 24 25 24 23 23 22 22 22 22 22 21 21 21 21 21 22 22 22 22 22 27 28 29 29 29 29 29 30 30 30 31 31 31 31 32 32 32 32 32 32 32 32 33 33 33 33 33 34 34 34 34 34 35 35 35 35
23 22 22 22 22 23 24 23 24 26 27 23 22 21 21 19 19 18 18 18 18 19 20 20 20 21 22 23 24 24 22 23 23 22 22 21 21 21 21 21 20 20 20 20 21 21 21 21 21 22 26 28 29 28 28 29 29 30 30 30 31 31 31 31 32 32 32 32 32 32 32 32 32 32 32 33 33 33 33 33 33 33 34 34 34 34
23 22 21 20 21 22 24 22 22 24 26 23 23 22 20 20 19 19 18 18 19 19 20 21 23 24 25 25 24 22 22 23 22 21 20 19 20 20 21 21 20 20 20 20 20 21 21 21 21 22 26 28 28 28 28 29 29 29 30 30 30 31 31 31 31 31 31 31 31 32 32 32 32 32 32 32 32 32 32 33 33 33 33 34 34 34
22 21 21 21 20 21 22 22 21 21 22 22 22 21 19 20 20 21 20 21 21 21 22 23 23 23 22 22 22 21 22 22 22 21 19 19 20 21 20 20 20 20 21 21 20 20 20 20 20 21 23 26 27 28 28 29 29 29 29 30 30 30 31 31 31 31 31 31 31 31 31 32 32 32 32 32 32 32 32 32 32 33 33 33 34 34
22 22 22 22 23 24 24 23 23 24 22 21 21 21 21 22 24 25 23 22 22 22 22 22 21 21 21 22 22 21 21 19 20 20 19 19 19 20 20 20 20 20 20 20 20 20 20 20 21 21 22 24 26 28 28 28 29 29 29 29 30 30 30 30 30 31 31 31 31 31 31 31 31 31 32 32 32 32 32 32 32 32 33 33 33 33
27 27 26 27 27 29 29 28 30 30 26 25 24 23 23 25 27 27 26 24 24 24 23 22 22 22 22 22 21 20 21 18 18 19 19 18 19 19 20 20 20 20 20 20 21 21 21 21 21 21 21 22 25 28 28 28 28 28 29 29 29 29 29 30 30 30 30 31 31 31 31 31 31 31 31 31 31 31 31 31 32 32 32 32 32 32
29 28 28 29 29 29 29 29 29 29 28 28 27 27 27 27 27 27 27 26 26 26 25 24 23 23 22 22 20 20 21 21 20 19 18 19 20 20 20 20 20 20 20 20 21 21 22 22 22 22 22 21 23 26 28 29 28 28 28 28 28 28 29 29 29 30 30 30 30 31 31 31 31 31 31 31 31 31 31 31 31 31 31 31 31 31
28 28 28 28 28 28 28 29 29 29 28 28 27 27 28 28 27 27 27 26 27 27 26 25 24 23 22 21 20 20 21 22 22 21 19 20 20 19 18 18 18 18 19 20 21 22 23 23 22 22 21 21 22 24 27 29 28 28 27 27 28 28 28 28 29 29 29 30 30 30 30 30 31 31 31 31 31 31 31 31 31 31 31 30 29 29
27 27 27 27 27 28 28 28 28 28 28 28 27 27 27 26 25 25 25 27 27 27 26 25 24 23 22 22 22 21 21 21 22 22 21 19 18 18 17 17 17 18 18 19 20 21 20 22 21 19 19 22 23 23 24 27 27 27 27 27 27 27 27 28 28 28 29 29 29 29 30 30 30 30 30 31 31 31 31 31 31 30 30 29 28 28
23 23 23 24 25 25 25 23 25 27 28 28 27 27 26 25 25 25 26 27 27 26 25 24 24 23 22 22 22 21 20 19 20 20 19 18 18 17 16 17 17 17 18 19 19 18 18 20 20 19 18 22 23 22 21 23 24 25 25 26 27 27 27 27 27 27 28 28 29 29 29 29 29 30 30 30 30 31 31 31 30 30 28 28 28 27
17 19 18 18 18 19 20 21 22 23 25 26 27 26 25 24 23 23 23 24 24 24 23 23 23 23 23 22 21 20 19 18 20 21 19 18 18 18 18 18 18 17 18 19 19 18 18 19 20 21 20 21 21 22 21 22 22 22 22 23 24 26 27 27 27 27 27 27 28 28 28 29 29 29 30 30 30 30 30 30 30 29 28 27 27 27
16 18 18 17 17 17 18 19 19 19 20 22 22 23 24 23 23 22 21 22 22 22 22 22 22 22 23 22 22 21 20 18 21 24 22 21 20 20 20 20 19 19 20 21 20 18 18 18 19 20 20 20 20 20 21 22 22 22 22 22 23 24 26 26 26 26 26 27 27 27 28 28 28 29 29 29 29 30 30 30 30 29 28 27 27 27
18 17 16 17 17 16 18 17 17 17 19 19 20 21 22 22 24 24 22 22 22 22 21 21 22 22 22 22 22 22 22 21 22 25 25 23 22 22 21 21 20 20 21 21 21 20 19 18 18 19 19 19 19 20 20 22 22 22 22 22 22 22 24 25 25 25 25 26 27 27 27 27 28 28 28 28 29 29 29 29 29 29 29 28 27 28
17 17 16 16 15 15 15 15 15 16 18 19 20 21 22 22 23 24 25 24 24 24 23 22 22 22 22 22 22 22 22 21 23 24 25 24 23 22 22 21 21 21 21 20 20 20 19 19 18 18 18 19 19 20 20 21 22 22 22 22 21 21 22 23 23 23 24 24 24 25 25 26 27 27 27 28 28 29 29 29 30 30 30 29 29 28
15 16 15 14 13 13 14 14 16 17 19 19 20 22 23 22 22 23 25 25 25 25 24 24 24 23 22 22 21 21 21 20 23 26 26 24 23 22 22 21 21 20 20 20 19 19 18 18 18 18 18 18 19 19 19 20 20 21 21 21 22 21 21 22 22 22 22 22 22 22 23 23 24 25 26 27 28 28 29 29 30 30 30 30 30 29
13 14 15 13 13 14 14 16 18 19 21 20 20 20 22 21 21 21 22 22 23 24 25 25 24 24 23 22 21 21 20 20 22 25 26 24 23 22 22 21 21 21 20 20 19 18 18 18 18 19 19 18 18 18 19 19 20 20 20 21 22 22 22 22 22 22 22 22 22 22 22 22 23 24 25 27 28 29 29 29 30 30 30 30 30 29
13 13 14 13 12 13 15 15 18 20 21 19 18 18 20 20 20 21 20 20 20 21 22 24 25 25 25 23 22 22 21 21 22 23 24 24 23 22 21 21 21 21 21 20 19 19 18 18 18 18 18 18 18 18 18 19 20 20 20 21 21 22 22 22 23 22 22 22 22 23 23 23 24 25 26 27 28 28 29 29 29 29 29 29 29 30
13 13 13 12 12 13 14 15 18 20 22 20 18 18 18 18 18 18 19 18 18 18 18 20 21 22 24 25 24 22 21 21 21 22 22 23 22 22 21 21 21 22 22 21 20 20 19 18 18 17 17 17 18 18 19 19 20 20 20 21 21 22 22 22 23 23 23 23 24 24 25 25 25 25 26 26 27 26 26 26 27 28 28 28 29 29
11 11 11 12 13 14 14 15 18 20 22 21 20 18 17 17 17 18 18 17 16 16 16 18 18 19 18 19 22 23 23 21 19 18 18 20 21 22 22 21 21 21 22 22 22 21 20 19 18 18 17 17 18 18 19 19 19 20 20 21 21 22 22 22 23 24 23 23 24 25 25 25 24 24 24 24 24 23 23 24 25 26 27 26 27 27
11 11 13 16 17 17 16 18 20 21 21 20 20 20 19 19 18 18 18 18 19 18 16 17 18 19 19 21 22 24 23 22 21 19 17 18 20 22 22 21 21 21 22 22 22 22 21 20 20 19 19 18 18 18 19 19 20 20 21 21 21 21 22 22 23 23 23 23 23 24 24 23 23 23 23 23 23 23 23 23 24 25 26 25 24 24
13 13 16 18 19 21 22 22 22 22 22 21 19 18 18 18 18 18 18 19 19 20 20 20 20 20 19 19 20 21 21 20 21 21 18 18 21 22 22 22 22 22 22 22 22 22 22 21 20 20 20 19 19 19 20 20 21 22 22 21 21 21 22 23 23 23 24 23 23 24 24 24 24 24 24 24 24 24 24 24 24 24 25 24 24 23
18 18 17 18 18 19 20 20 22 23 23 22 20 18 18 18 18 18 18 17 17 18 20 19 19 19 19 20 20 20 20 20 21 22 21 21 22 23 23 22 22 22 22 22 21 22 22 22 21 21 20 20 20 19 19 20 21 22 22 22 22 22 22 23 23 23 23 23 22 23 24 24 23 23 24 24 24 24 25 24 25 26 26 25 24 24
18 18 18 18 19 20 21 22 23 23 22 20 18 18 18 19 19 20 20 19 19 19 21 21 21 20 20 20 20 20 20 21 21 22 22 21 21 22 22 22 22 22 22 21 21 21 21 22 22 21 21 21 21 20 20 20 21 21 22 22 22 22 21 21 21 22 22 23 23 23 23 23 23 23 23 24 24 24 24 25 26 27 27 26 25 25
18 18 19 20 20 21 22 22 22 22 21 20 20 20 20 21 21 21 21 20 20 21 21 21 20 20 20 20 20 20 20 20 21 22 22 23 22 22 22 22 22 22 22 22 21 21 21 21 21 21 21 22 21 21 21 21 21 21 21 22 22 22 21 21 22 22 23 23 23 23 23 23 23 23 23 23 23 23 23 23 24 24 26 25 25 25
18 18 19 20 20 21 22 22 21 21 20 20 20 20 20 20 21 21 21 20 20 21 20 21 21 20 20 19 19 19 19 19 20 21 21 23 25 26 25 23 23 22 22 22 22 21 21 20 21 21 21 22 22 21 21 21 21 21 22 22 22 22 22 22 22 22 22 22 22 22 22 22 22 22 22 22 23 23 23 23 23 24 24 25 25 25
19 20 20 20 21 21 21 21 20 20 20 20 20 20 20 20 20 21 21 21 21 21 21 21 21 20 19 19 18 18 18 18 19 19 19 19 21 22 24 24 24 23 23 22 22 22 22 21 21 21 21 21 21 21 21 21 21 21 21 22 22 22 22 22 22 22 22 22 22 22 22 22 22 22 22 22 23 23 23 24 24 25 25 25 25 26
20 20 21 22 22 21 21 21 20 20 20 20 20 20 20 20 20 20 21 21 21 21 22 22 21 20 19 19 18 18 18 18 18 19 19 19 20 20 20 22 23 24 23 23 22 22 22 22 22 22 22 21 20 20 20 20 21 21 21 21 21 21 22 22 22 22 22 22 22 22 22 22 23 23 23 23 23 23 24 24 25 25 26 26 27 27
21 21 22 22 22 21 20 20 20 20 20 20 20 20 20 21 21 21 21 21 22 22 22 21 20 20 19 19 19 19 19 19 19 19 19 20 20 20 20 21 22 22 23 23 23 23 23 23 23 23 22 22 21 20 20 20 21 21 21 21 22 22 21 22 22 22 23 23 22 22 22 23 23 23 23 23 23 23 24 25 25 26 26 26 26 26
22 22 22 22 21 20 20 20 20 20 19 19 20 20 20 21 22 22 21 21 21 21 21 20 20 19 19 19 19 19 20 20 20 19 19 19 20 20 21 21 21 21 22 22 23 23 23 24 24 24 24 23 22 22 21 21 21 22 22 22 22 22 22 22 22 23 23 23 23 23 23 23 24 24 24 24 24 24 24 24 24 25 24 24 24 23
21 21 21 21 20 19 19 19 20 20 20 20 19 20 20 20 20 20 20 20 21 21 21 20 20 20 19 19 19 19 20 19 19 19 19 20 20 20 21 20 21 21 21 21 21 21 22 22 23 24 26 25 25 23 22 22 22 22 22 22 22 22 22 22 22 22 23 23 23 24 25 25 25 25 25 25 24 24 23 22 22 22 22 22 22 22
19 20 20 20 20 20 20 20 20 19 19 19 19 19 19 19 19 19 19 20 20 20 20 20 20 20 19 19 19 20 20 20 20 19 19 20 20 20 21 21 21 20 20 20 20 19 19 19 19 20 22 25 26 25 23 22 22 22 21 21 21 21 21 21 21 22 22 22 23 23 24 24 24 24 24 24 23 22 21 21 21 21 22 22 22 22